Back to catalog

SL-14 DEB

AlivePO
NORAD 26000·DEBRIS·🇷🇺 Russia

Launched Sep 28, 1991 from Plesetsk Cosmodrome

Loading…

Next Passes (next 24 hours)

TLE

FreshSource: Space-Track

Epoch: Sep 14, 2026, 11:26 UTC

1 26000U 91068K   26257.47671100  .00000059  00000-0  34081-3 0  9993
2 26000  82.7170 256.1331 0040531 288.3990 226.8400 12.45467020214851

Track SL-14 DEB in real time with AllMySat

Download on the App Store